W2PJ Weather Reports


Display with metric or nautical units.
time (UTC)temp
F
wind
direction
speed
MPH
gust
MPH
rain 1hr
in
rain 24hr
in
rain mn
in
humidity
%
barometer
mb
20260902083116 66 128 0.0 0.0 0.00 0.05 0.00 90 1017.0
20260902082620 66 159 0.0 0.0 0.00 0.00 0.00 90 1017.0
20260902082003 66 148 0.0 0.0 0.00 0.05 0.00 90 1016.8
20260902081546 66 154 0.0 0.0 0.00 0.05 0.00 90 1016.9
20260902081105 65 147 0.0 1.0 0.00 0.05 0.00 90 1016.9
20260902080620 65 142 0.0 1.0 0.00 0.05 0.00 90 1016.9
20260902080041 65 121 0.0 0.0 0.00 0.05 0.00 90 1016.9
20260902075600 65 140 0.0 0.0 0.00 0.08 0.00 90 1016.9
20260902075120 65 156 0.0 0.0 0.00 0.08 0.00 89 1016.8
20260902074531 65 166 0.0 0.0 0.00 0.08 0.00 89 1016.8
20260902074049 65 143 0.0 0.0 0.00 0.08 0.00 89 1016.8
20260902073608 65 159 0.0 0.0 0.00 0.08 0.00 89 1016.7
20260902073007 65 182 0.0 0.0 0.00 0.08 0.00 89 1016.7
20260902072526 65 114 0.0 0.0 0.00 0.08 0.00 89 1016.6
20260902072047 65 130 0.0 0.0 0.00 0.08 0.00 89 1016.6
20260902071600 65 116 0.0 0.0 0.00 0.08 0.00 89 1016.6
20260902071121 65 151 0.0 0.0 0.00 0.08 0.00 89 1016.6
20260902070500 65 111 0.0 0.0 0.00 0.08 0.00 89 1016.5
20260902070152 65 153 0.0 0.0 0.00 0.08 0.00 89 1016.5
20260902065512 65 164 0.0 0.0 0.00 0.08 0.00 89 1016.5
20260902065034 65 110 0.0 0.0 0.00 0.08 0.00 89 1016.6
20260902064557 65 159 0.0 0.0 0.00 0.08 0.00 89 1016.6
20260902064111 65 130 0.0 0.0 0.00 0.08 0.00 89 1016.7
20260902063500 65 137 0.0 0.0 0.00 0.08 0.00 89 1016.7
20260902063045 65 136 0.0 0.0 0.00 0.08 0.00 89 1016.8
20260902062601 65 165 0.0 0.0 0.00 0.08 0.00 89 1016.8
20260902062120 65 140 0.0 0.0 0.00 0.08 0.00 89 1016.8
20260902061546 65 140 0.0 0.0 0.00 0.08 0.00 89 1016.8
20260902061059 65 144 0.0 0.0 0.00 0.08 0.00 89 1016.8
20260902060614 66 136 0.0 0.0 0.00 0.08 0.00 89 1016.8
20260902060136 66 129 0.0 0.0 0.00 0.08 0.00 89 1016.8
20260902055502 66 129 0.0 0.0 0.00 0.09 0.00 89 1016.8
20260902055015 66 158 0.0 0.0 0.00 0.09 0.00 89 1016.7
20260902054542 66 150 0.0 0.0 0.00 0.09 0.00 89 1016.8
20260902054103 66 162 0.0 0.0 0.00 0.09 0.00 89 1016.7
20260902053620 66 146 0.0 0.0 0.00 0.09 0.00 89 1016.7
20260902053046 66 159 0.0 0.0 0.00 0.09 0.00 89 1016.8
20260902052556 66 150 0.0 0.0 0.00 0.09 0.00 89 1016.7
20260902052117 67 161 0.0 0.0 0.00 0.09 0.00 89 1016.6
20260902051636 67 120 0.0 0.0 0.00 0.09 0.00 89 1016.5
20260902051010 67 133 0.0 0.0 0.00 0.09 0.00 89 1016.5
20260902050529 67 137 0.0 0.0 0.00 0.09 0.00 89 1016.5
20260902050052 67 148 0.0 0.0 0.00 0.09 0.00 89 1016.5
20260902045605 67 148 0.0 0.0 0.00 0.09 0.00 89 1016.5
20260902045125 67 127 0.0 0.0 0.00 0.09 0.00 90 1016.4
20260902044541 68 123 0.0 0.0 0.00 0.09 0.00 90 1016.4
20260902044054 68 143 0.0 0.0 0.00 0.09 0.00 90 1016.4
20260902043612 68 125 0.0 0.0 0.00 0.09 0.00 90 1016.5
20260902043042 68 139 0.0 0.0 0.00 0.09 0.00 90 1016.5
20260902042555 68 116 0.0 0.0 0.00 0.09 0.00 90 1016.4
20260902042114 68 128 0.0 0.0 0.00 0.09 0.00 90 1016.3
20260902041514 68 129 0.0 0.0 0.00 0.09 0.00 90 1016.3
20260902041034 68 133 0.0 0.0 0.00 0.09 0.00 90 1016.3
20260902040548 68 113 0.0 0.0 0.00 0.09 0.00 90 1016.4
20260902040052 68 144 0.0 0.0 0.00 0.09 0.00 90 1016.3
20260902035506 68 174 0.0 0.0 0.00 0.10 0.09 90 1016.4
20260902035019 68 119 0.0 0.0 0.00 0.10 0.09 90 1016.3
20260902034543 68 119 0.0 0.0 0.00 0.10 0.09 90 1016.3
20260902034101 68 98 0.0 0.0 0.00 0.10 0.09 90 1016.3
20260902033623 68 130 0.0 0.0 0.00 0.10 0.09 90 1016.3
20260902033044 68 133 0.0 0.0 0.00 0.10 0.09 90 1016.4
20260902032601 68 144 0.0 0.0 0.00 0.10 0.09 90 1016.4
20260902032119 68 144 0.0 0.0 0.00 0.10 0.09 90 1016.3
20260902031543 68 144 0.0 0.0 0.00 0.10 0.09 90 1016.4
20260902031101 68 138 0.0 0.0 0.00 0.10 0.09 90 1016.3
20260902030623 68 131 0.0 0.0 0.00 0.10 0.09 90 1016.3
20260902030145 68 133 0.0 0.0 0.00 0.10 0.09 90 1016.2
20260902025501 68 171 0.0 0.0 0.00 0.10 0.09 90 1016.2
20260902025021 68 248 0.0 0.0 0.00 0.10 0.09 91 1016.2
20260902024555 69 164 0.0 0.0 0.00 0.10 0.09 91 1016.2
20260902024119 69 132 0.0 0.0 0.00 0.10 0.09 91 1016.2
20260902023635 69 131 0.0 0.0 0.00 0.10 0.09 91 1016.3
20260902023039 69 131 0.0 0.0 0.00 0.10 0.09 91 1016.3
20260902022559 69 131 0.0 0.0 0.00 0.10 0.09 90 1016.3
20260902022117 69 131 0.0 0.0 0.00 0.10 0.09 91 1016.4
20260902021531 69 131 0.0 0.0 0.00 0.10 0.09 91 1016.5
20260902021054 69 132 0.0 0.0 0.00 0.10 0.09 91 1016.5
20260902020613 69 131 0.0 0.0 0.00 0.10 0.09 91 1016.5
20260902020136 69 131 0.0 0.0 0.00 0.10 0.09 91 1016.5
20260902015508 69 132 0.0 0.0 0.00 0.10 0.09 91 1016.4
20260902015027 69 131 0.0 0.0 0.00 0.10 0.09 91 1016.4
20260902014600 69 132 0.0 0.0 0.00 0.10 0.09 91 1016.4
20260902014120 69 131 0.0 0.0 0.00 0.10 0.09 91 1016.4
20260902013506 69 132 0.0 0.0 0.00 0.10 0.09 91 1016.4
20260902013154 69 131 0.0 0.0 0.00 0.10 0.09 91 1016.3
20260902012513 69 131 0.0 0.0 0.00 0.10 0.09 91 1016.3
20260902012031 69 140 0.0 0.0 0.00 0.10 0.09 91 1016.2
20260902011557 69 150 0.0 0.0 0.00 0.10 0.09 91 1016.0
20260902011101 69 176 0.0 0.0 0.00 0.10 0.09 91 1016.0
20260902010622 69 168 0.0 0.0 0.00 0.10 0.09 92 1016.0
20260902010033 69 130 0.0 0.0 0.00 0.10 0.09 91 1016.0
20260902005549 69 103 0.0 0.0 0.00 0.10 0.09 91 1015.9
20260902005112 70 81 0.0 0.0 0.00 0.10 0.09 91 1015.8
20260902004501 70 93 0.0 0.0 0.00 0.10 0.09 91 1015.7
20260902004018 70 95 0.0 0.0 0.00 0.10 0.09 91 1015.5
20260902003533 70 77 0.0 0.0 0.00 0.10 0.09 91 1015.4
20260902003045 69 87 0.0 0.0 0.00 0.10 0.09 91 1015.2
20260902002606 69 80 0.0 0.0 0.00 0.10 0.09 91 1015.1
20260902002124 69 89 0.0 0.0 0.00 0.10 0.09 91 1015.2
20260902001535 69 79 0.0 0.0 0.00 0.10 0.09 91 1015.1
20260902001057 69 79 0.0 0.0 0.00 0.10 0.09 91 1015.1
20260902000613 69 86 0.0 0.0 0.00 0.10 0.09 92 1015.1
20260902000039 70 92 0.0 0.0 0.00 0.10 0.09 92 1014.9
20260901235548 70 93 0.0 0.0 0.00 0.10 0.09 92 1014.8
20260901235114 70 117 0.0 0.0 0.00 0.10 0.09 92 1014.8
20260901234525 70 112 0.0 0.0 0.00 0.10 0.09 92 1014.8
20260901234043 71 95 0.0 0.0 0.00 0.10 0.09 92 1014.9
20260901233624 71 79 0.0 0.0 0.00 0.10 0.09 91 1014.9
20260901233028 71 81 0.0 0.0 0.00 0.10 0.09 91 1015.1
20260901232550 71 73 0.0 0.0 0.00 0.10 0.09 91 1015.1
20260901232111 72 77 0.0 0.0 0.00 0.10 0.09 91 1015.1
20260901231633 72 45 0.0 0.0 0.00 0.10 0.09 91 1015.1
20260901231009 72 65 0.0 0.0 0.00 0.10 0.09 90 1015.2
20260901230532 73 90 0.0 0.0 0.00 0.10 0.09 90 1015.2
20260901230049 73 79 0.0 0.0 0.00 0.10 0.09 91 1015.2
20260901225602 73 62 0.0 0.0 0.00 0.10 0.09 90 1015.2
20260901225117 73 74 0.0 0.0 0.00 0.10 0.09 90 1015.3
20260901224537 73 84 0.0 0.0 0.00 0.10 0.09 90 1015.2
20260901224057 73 88 0.0 0.0 0.00 0.10 0.09 90 1015.3
20260901223615 73 76 0.0 0.0 0.00 0.10 0.09 90 1015.2
20260901223043 74 106 0.0 0.0 0.00 0.10 0.09 89 1015.1
20260901222559 74 84 0.0 0.0 0.00 0.10 0.09 90 1015.1
20260901222123 74 79 0.0 0.0 0.00 0.10 0.09 89 1015.1
20260901221600 74 101 0.0 0.0 0.00 0.10 0.09 89 1015.1
20260901221053 74 84 0.0 0.0 0.00 0.10 0.09 88 1015.0
20260901220614 75 79 0.0 0.0 0.00 0.10 0.09 88 1015.0
20260901220137 75 67 0.0 0.0 0.00 0.10 0.09 87 1015.0
20260901215503 76 95 0.0 0.0 0.00 0.10 0.09 87 1015.1
20260901215025 76 42 0.0 0.0 0.00 0.10 0.09 87 1015.0
20260901214549 76 36 0.0 0.0 0.00 0.10 0.09 86 1014.9
20260901214108 76 92 0.0 0.0 0.00 0.10 0.09 88 1014.9
20260901213626 75 86 0.0 0.0 0.00 0.10 0.09 88 1014.9
20260901213059 75 84 0.0 0.0 0.00 0.10 0.09 88 1014.9
20260901212559 75 87 0.0 0.0 0.00 0.10 0.09 89 1014.8
20260901212123 75 88 0.0 0.0 0.00 0.10 0.09 89 1014.9
20260901211651 75 131 0.0 0.0 0.00 0.10 0.09 89 1015.0
20260901211011 74 42 0.0 0.0 0.00 0.10 0.09 90 1015.2
20260901210041 74 59 0.0 0.0 0.00 0.10 0.09 90 1015.2
20260901205559 74 20 0.0 0.0 0.00 0.10 0.09 90 1015.3
20260901205116 74 43 0.0 0.0 0.00 0.10 0.09 90 1015.3
20260901204530 75 84 0.0 0.0 0.00 0.10 0.09 89 1015.2
20260901204052 75 72 0.0 0.0 0.00 0.10 0.09 89 1015.2
20260901203611 75 107 0.0 0.0 0.00 0.10 0.09 90 1015.1
20260901203138 74 107 0.0 0.0 0.00 0.10 0.09 90 1015.1
20260901202635 74 106 0.0 0.0 0.00 0.10 0.09 90 1015.1
20260901202019 74 91 0.0 0.0 0.00 0.10 0.09 89 1015.0
20260901201541 74 73 0.0 0.0 0.00 0.10 0.09 90 1014.9
20260901201100 74 93 0.0 0.0 0.00 0.10 0.09 90 1014.9
20260901200619 74 116 0.0 0.0 0.00 0.10 0.09 90 1014.9
20260901200040 74 98 0.0 0.0 0.00 0.10 0.09 90 1014.9
20260901195553 74 74 0.0 0.0 0.00 0.10 0.09 90 1014.9
20260901195110 74 98 0.0 0.0 0.00 0.10 0.09 90 1015.0
20260901194634 74 86 0.0 0.0 0.00 0.10 0.09 90 1015.0
20260901194013 74 85 0.0 0.0 0.00 0.10 0.09 90 1015.0
20260901193528 74 89 0.0 0.0 0.00 0.10 0.09 90 1015.0
20260901193056 74 95 0.0 0.0 0.00 0.10 0.09 90 1015.0
20260901192617 74 28 0.0 0.0 0.00 0.10 0.09 91 1015.0
20260901192002 74 67 0.0 0.0 0.00 0.10 0.09 90 1014.9
20260901191600 74 102 0.0 0.0 0.00 0.10 0.09 91 1015.0
20260901191051 74 74 0.0 0.0 0.00 0.10 0.09 90 1015.0
20260901190609 74 65 0.0 0.0 0.00 0.10 0.09 90 1014.9
20260901190037 74 39 0.0 0.0 0.00 0.10 0.09 91 1015.0
20260901185605 74 20 0.0 0.0 0.00 0.10 0.09 91 1015.0
20260901185115 74 359 0.0 0.0 0.00 0.10 0.09 91 1014.9
20260901184541 74 5 0.0 0.0 0.00 0.10 0.09 90 1014.9
20260901184059 74 45 0.0 0.0 0.00 0.10 0.09 90 1014.9
20260901183616 74 38 0.0 0.0 0.00 0.10 0.09 91 1014.9
20260901183143 74 20 0.0 0.0 0.00 0.10 0.09 90 1014.9
20260901182507 74 55 0.0 0.0 0.00 0.10 0.09 91 1014.8
20260901182024 74 4 0.0 0.0 0.00 0.10 0.09 90 1014.8
20260901181614 74 53 0.0 1.0 0.00 0.10 0.09 91 1014.7
20260901181113 74 22 0.0 1.0 0.00 0.10 0.09 90 1014.6
20260901180636 74 86 0.0 0.0 0.00 0.10 0.09 90 1014.4
20260901180029 74 45 0.0 0.0 0.00 0.10 0.09 91 1014.4
20260901175553 74 70 0.0 0.0 0.00 0.10 0.09 91 1014.4
20260901175109 74 33 0.0 0.0 0.00 0.10 0.09 91 1014.4
20260901174634 74 43 0.0 0.0 0.00 0.10 0.09 91 1014.4
20260901174016 74 46 0.0 0.0 0.00 0.10 0.09 91 1014.4
20260901173534 74 69 0.0 0.0 0.00 0.10 0.09 91 1014.4
20260901173052 74 29 0.0 0.0 0.00 0.10 0.09 91 1014.4
20260901172606 74 31 0.0 0.0 0.00 0.10 0.09 91 1014.3
20260901172120 74 95 0.0 0.0 0.00 0.10 0.09 91 1014.3
20260901171538 74 86 0.0 0.0 0.00 0.10 0.09 90 1014.3
20260901171051 74 42 0.0 0.0 0.00 0.10 0.09 90 1014.3
20260901170613 74 41 0.0 0.0 0.00 0.10 0.09 89 1014.3
20260901170145 75 63 0.0 0.0 0.00 0.10 0.09 88 1014.3
20260901165507 76 284 0.0 0.0 0.00 0.10 0.09 86 1014.3
20260901165020 76 271 0.0 0.0 0.00 0.10 0.09 87 1014.3
20260901164617 75 276 0.0 0.0 0.00 0.10 0.09 86 1014.3
20260901164121 76 274 0.0 0.0 0.00 0.10 0.09 86 1014.3
20260901163505 75 174 0.0 0.0 0.00 0.10 0.09 87 1014.3
20260901163048 75 183 0.0 0.0 0.00 0.10 0.09 87 1014.3
20260901162609 75 247 0.0 0.0 0.00 0.10 0.09 88 1014.3
20260901162126 75 258 0.0 0.0 0.00 0.10 0.09 87 1014.3
20260901161543 75 181 0.0 0.0 0.00 0.10 0.09 89 1014.4
20260901161101 75 255 0.0 0.0 0.00 0.10 0.09 90 1014.4
20260901160618 74 249 0.0 0.0 0.00 0.10 0.09 90 1014.4
20260901160141 74 134 0.0 0.0 0.00 0.10 0.09 91 1014.3
20260901155509 73 204 0.0 0.0 0.00 0.12 0.09 90 1014.3
20260901155025 73 111 0.0 0.0 0.00 0.12 0.09 90 1014.3
20260901154544 73 122 0.0 0.0 0.00 0.12 0.09 90 1014.3
20260901154105 73 131 0.0 0.0 0.00 0.12 0.09 91 1014.3
20260901153619 73 156 0.0 0.0 0.00 0.12 0.09 91 1014.3
20260901153143 72 145 0.0 0.0 0.00 0.12 0.09 91 1014.4
20260901152514 72 145 0.0 0.0 0.00 0.12 0.09 91 1014.3
20260901152031 72 110 0.0 0.0 0.00 0.12 0.09 91 1014.3
20260901151548 72 154 0.0 0.0 0.00 0.12 0.09 91 1014.4
20260901151105 72 117 0.0 0.0 0.00 0.12 0.09 92 1014.4
20260901150624 71 220 0.0 1.0 0.00 0.12 0.09 92 1014.4
20260901150042 71 134 0.0 1.0 0.00 0.12 0.09 92 1014.4
20260901145601 71 154 0.0 0.0 0.00 0.12 0.09 92 1014.6
20260901145123 70 147 0.0 0.0 0.00 0.12 0.09 91 1014.6
20260901144541 70 130 0.0 0.0 0.00 0.12 0.09 91 1014.6
20260901144053 70 116 0.0 0.0 0.00 0.12 0.09 92 1014.6
20260901143609 70 136 0.0 0.0 0.00 0.12 0.09 92 1014.6
20260901143002 70 116 0.0 0.0 0.00 0.12 0.09 92 1014.7
20260901142522 69 197 0.0 0.0 0.00 0.12 0.09 91 1014.6
20260901142039 69 142 0.0 0.0 0.01 0.12 0.09 91 1014.5
20260901141555 69 169 0.0 0.0 0.01 0.12 0.09 91 1014.5
20260901141109 69 165 0.0 0.0 0.01 0.12 0.09 91 1014.6
20260901140626 69 192 0.0 0.0 0.01 0.12 0.09 91 1014.6
20260901140148 69 157 0.0 0.0 0.01 0.12 0.09 91 1014.5
20260901135513 69 135 0.0 0.0 0.01 0.12 0.09 91 1014.5
20260901135032 69 137 0.0 0.0 0.01 0.12 0.09 91 1014.4
20260901134549 69 127 0.0 0.0 0.01 0.12 0.09 91 1014.4
20260901134107 69 137 0.0 0.0 0.01 0.12 0.09 91 1014.5
20260901133628 69 168 0.0 0.0 0.01 0.12 0.09 92 1014.4
20260901133148 69 165 0.0 1.0 0.01 0.12 0.09 92 1014.4
20260901132505 69 121 0.0 0.0 0.00 0.11 0.08 92 1014.5
20260901132026 68 147 0.0 0.0 0.00 0.11 0.08 91 1014.5
20260901131541 68 159 0.0 0.0 0.00 0.11 0.08 91 1014.5
20260901131101 67 149 0.0 0.0 0.00 0.11 0.08 90 1014.7
20260901130619 67 131 0.0 0.0 0.00 0.11 0.08 90 1014.8
20260901130007 67 152 0.0 0.0 0.00 0.11 0.08 89 1014.7
20260901125526 67 171 0.0 0.0 0.00 0.11 0.08 89 1014.7
20260901125044 67 122 0.0 0.0 0.00 0.11 0.08 89 1014.6
20260901124601 67 250 0.0 0.0 0.00 0.11 0.08 89 1014.8
20260901124113 66 182 0.0 0.0 0.00 0.11 0.08 89 1014.8
20260901123633 66 118 0.0 0.0 0.00 0.11 0.08 89 1014.8
20260901123041 66 137 0.0 0.0 0.00 0.11 0.08 89 1014.8
20260901122605 66 131 0.0 0.0 0.00 0.11 0.08 89 1014.9
20260901122120 66 165 0.0 0.0 0.00 0.11 0.08 89 1015.0
20260901121642 66 155 0.0 0.0 0.00 0.11 0.08 89 1015.2
20260901121002 66 145 0.0 0.0 0.00 0.11 0.08 89 1015.1
20260901120521 66 116 0.0 1.0 0.00 0.11 0.08 89 1015.1
20260901120049 66 148 0.0 1.0 0.00 0.11 0.08 89 1015.1
20260901115609 66 125 0.0 0.0 0.00 0.11 0.08 89 1015.0
20260901115121 65 103 0.0 0.0 0.00 0.11 0.08 89 1015.2
20260901114537 65 99 0.0 0.0 0.00 0.11 0.08 89 1015.3
20260901114055 65 162 0.0 0.0 0.00 0.11 0.08 89 1015.3
20260901113615 65 126 0.0 0.0 0.00 0.11 0.08 89 1015.3
20260901113142 65 245 0.0 0.0 0.00 0.11 0.08 89 1015.4
20260901112512 65 159 0.0 0.0 0.00 0.11 0.08 89 1015.3
20260901112029 65 221 0.0 0.0 0.00 0.11 0.08 89 1015.2
20260901111545 65 147 0.0 0.0 0.00 0.11 0.08 89 1015.1
20260901111101 65 147 0.0 0.0 0.00 0.11 0.08 89 1015.1
20260901110616 65 125 0.0 0.0 0.00 0.11 0.08 89 1015.1
20260901110035 65 139 0.0 0.0 0.00 0.11 0.08 89 1015.1
20260901105557 65 117 0.0 0.0 0.00 0.11 0.08 89 1015.0
20260901105114 65 145 0.0 0.0 0.01 0.11 0.08 89 1015.1
20260901104532 65 130 0.0 0.0 0.04 0.11 0.08 89 1014.9
20260901104052 65 178 0.0 0.0 0.04 0.11 0.08 89 1015.0
20260901103614 65 144 0.0 0.0 0.04 0.11 0.08 89 1014.8
20260901103139 65 145 0.0 0.0 0.04 0.11 0.08 89 1014.9
20260901102634 65 103 0.0 0.0 0.04 0.11 0.08 89 1014.9
20260901102021 65 130 0.0 0.0 0.04 0.11 0.08 89 1015.2
20260901101554 65 131 0.0 0.0 0.04 0.11 0.08 89 1015.0
20260901101051 66 143 0.0 0.0 0.04 0.11 0.08 89 1015.0
20260901100609 66 151 0.0 0.0 0.04 0.11 0.08 89 1015.4
20260901100135 66 124 0.0 0.0 0.04 0.11 0.08 89 1015.4
20260901095512 66 137 0.0 0.0 0.04 0.11 0.08 89 1015.4
20260901095034 66 195 0.0 0.0 0.02 0.09 0.06 89 1015.8
20260901094552 66 200 0.0 0.0 0.00 0.07 0.04 89 1015.7
20260901094058 66 138 0.0 0.0 0.00 0.07 0.04 89 1015.5
20260901093617 66 138 0.0 0.0 0.00 0.07 0.04 89 1015.2
20260901093027 66 151 0.0 0.0 0.00 0.07 0.04 89 1015.2
20260901092547 66 158 0.0 0.0 0.00 0.07 0.04 89 1015.2
20260901092109 66 159 0.0 0.0 0.00 0.07 0.04 89 1015.1
20260901091631 66 134 0.0 0.0 0.00 0.07 0.04 89 1015.1
20260901091002 66 153 0.0 0.0 0.00 0.07 0.04 89 1015.0
20260901090520 66 144 0.0 0.0 0.00 0.07 0.04 89 1015.0
20260901090046 65 111 0.0 0.0 0.00 0.07 0.04 89 1015.0
20260901085608 65 133 0.0 0.0 0.00 0.07 0.04 89 1015.0
20260901085126 65 147 0.0 0.0 0.01 0.07 0.04 89 1015.0
20260901084542 65 112 0.0 0.0 0.01 0.07 0.04 89 1015.0
20260901084053 65 158 0.0 0.0 0.01 0.07 0.04 89 1015.2
20260901083615 65 150 0.0 0.0 0.01 0.07 0.04 89 1015.2